Miscellaneous Local Product
Issued by NWS Hastings, NE

Home | Current Version | Previous Version | Graphics & Text | Print | Product List | Glossary On
Versions: 1 2 3 4 5 6 7 8 9 10 11 12 13 14 15 16 17 18 19 20 21 22 23 24 25 26 27 28 29 30 31 32 33 34 35 36 37 38 39 40 41 42 43 44 45 46 47 48 49 50
000
AXUS43 KGID 050402
MISGRI

GID CWA HOURLY WEATHER ROUNDUP
NATIONAL WEATHER SERVICE HASTINGS NE
1100 PM CDT SAT JUL 04 2015

NOTE: "FAIR" INDICATES FEW OR NO CLOUDS BELOW 12,000 FEET WITH NO
SIGNIFICANT WEATHER AND/OR OBSTRUCTIONS TO VISIBILITY.

...SOUTH CENTRAL NEBRASKA...

CITY           SKY/WX    TMP DP  RH WIND       PRES   REMARKS
GRAND ISLAND   CLOUDY    74  64  71 S13       29.91R
HASTINGS       MOCLDY    75  62  64 SE13      29.92R
KEARNEY        PTCLDY    73  63  68 SE12      29.91R
ORD            CLOUDY    74  65  73 SE8       29.88R
YORK           MOCLDY    73  66  78 SE12      29.92R
AURORA         MOCLDY    72  66  81 SE10      29.92R
LEXINGTON      CLEAR     78  65  65 SE10      29.90R
HOLDREGE       CLEAR     73  64  75 SE8       29.90R
HEBRON         PTCLDY    74  64  70 SE8       29.93R

...NEBRASKA PANHANDLE...

CITY           SKY/WX    TMP DP  RH WIND       PRES   REMARKS
CHADRON        CLEAR     71  66  84 SE3       29.84R
ALLIANCE       PTCLDY    68  62  81 S6        29.89R
SCOTTSBLUFF    MOCLDY    71  64  78 E6        29.88R
SIDNEY         CLOUDY    82  55  39 S10       29.91F

...WESTERN AND NORTH CENTRAL NEBRASKA...

CITY           SKY/WX    TMP DP  RH WIND       PRES   REMARKS
VALENTINE      CLOUDY    81  65  58 SE14      29.82R
AINSWORTH      CLOUDY    79  65  63 S14       29.85R
ONEILL         CLOUDY    75  67  74 SE13      29.89R
BROKEN BOW     CLOUDY    76  65  68 SE9       29.90R
IMPERIAL       CLOUDY    82  61  48 SE13      29.89R
NORTH PLATTE   CLEAR     76  64  66 SE12      29.89R
MCCOOK         MOCLDY    80  63  55 SE13      29.87R

...EASTERN NEBRASKA...

CITY           SKY/WX    TMP DP  RH WIND       PRES   REMARKS
NORFOLK        CLEAR     70  66  87 SE7       29.91R
SO SIOUX CITY  CLEAR     72  62  71 SE10      29.91R
TEKAMAH        CLEAR     69  63  81 SE7       29.93R
COLUMBUS       CLEAR     72  63  73 SE6       29.89R
ALBION         MOCLDY    70  64  80 SE7       29.91R
OMAHA EPPLEY   CLEAR     70  63  78 SE10      29.95R SMOKE
OFFUTT AFB     CLEAR     65  62  91 E6        29.95R
MILLARD        CLEAR     71  64  80 SE3       29.94R HAZE
LINCOLN        CLEAR     74  65  73 S10       29.94R HAZE
NEBRASKA CITY  CLEAR     68  60  76 S5        29.97R
BEATRICE       CLEAR     73  64  72 SE7       29.95R
FALLS CITY     CLEAR     69  63  81 SE6       29.96R

...NORTHERN KANSAS...

CITY           SKY/WX    TMP DP  RH WIND       PRES   REMARKS
GOODLAND       MOCLDY    78  62  57 SE18G29   29.93R
NORTON         CLEAR     79  61  53 SE8G18    29.89R
PHILLIPSBURG   CLEAR     81  64  57 E9        29.90R
SMITH CENTER   CLEAR     77  63  61 SE13      29.91S
HAYS           MOCLDY    79  63  57 SE12      29.91S
RUSSELL        MOCLDY    77  64  64 SE14      29.90R
CONCORDIA      PTCLDY    74  63  68 SE12      29.93R
SALINA         CLEAR     79  62  56 SE9       29.92R
TOPEKA         CLEAR     72  65  78 E5        29.97R HAZE



USA.gov is the U.S. government's official web portal to all federal, state and local government web resources and services.